TimeHST,TemperatureF,Dew PointF,Humidity,Sea Level PressureIn,VisibilityMPH,Wind Direction,Wind SpeedMPH,Gust SpeedMPH,PrecipitationIn,Events,Conditions,WindDirDegrees,DateUTC
12:53 AM,66.9,64.9,93,30.06,10.0,NW,4.6,-,N/A,,Partly Cloudy,310,2012-11-19 10:53:00
1:53 AM,66.9,64.9,93,30.05,10.0,North,3.5,-,N/A,,Scattered Clouds,10,2012-11-19 11:53:00
2:53 AM,66.0,64.9,96,30.05,10.0,Calm,Calm,-,N/A,,Scattered Clouds,0,2012-11-19 12:53:00
3:53 AM,64.9,64.0,97,30.05,10.0,Calm,Calm,-,N/A,,Scattered Clouds,0,2012-11-19 13:53:00
4:53 AM,66.0,66.0,100,30.05,10.0,North,5.8,-,N/A,,Scattered Clouds,10,2012-11-19 14:53:00
5:53 AM,66.0,66.0,100,30.06,10.0,WNW,6.9,-,N/A,,Scattered Clouds,300,2012-11-19 15:53:00
6:53 AM,66.0,64.9,96,30.07,10.0,Variable,5.8,-,N/A,,Scattered Clouds,0,2012-11-19 16:53:00
7:53 AM,69.1,64.9,87,30.09,10.0,ENE,10.4,18.4,N/A,,Scattered Clouds,70,2012-11-19 17:53:00
8:53 AM,71.1,64.0,78,30.10,10.0,East,10.4,-,N/A,,Scattered Clouds,80,2012-11-19 18:53:00
9:53 AM,73.0,64.9,76,30.11,10.0,ENE,15.0,21.9,N/A,,Scattered Clouds,70,2012-11-19 19:53:00
10:53 AM,73.9,64.0,71,30.10,10.0,East,12.7,-,N/A,,Mostly Cloudy,80,2012-11-19 20:53:00
11:53 AM,75.9,63.0,64,30.07,10.0,East,11.5,20.7,N/A,,Scattered Clouds,80,2012-11-19 21:53:00
12:53 PM,77.0,63.0,62,30.04,10.0,ENE,11.5,-,N/A,,Scattered Clouds,60,2012-11-19 22:53:00
1:53 PM,80.1,62.1,54,30.02,10.0,East,11.5,21.9,N/A,,Scattered Clouds,90,2012-11-19 23:53:00
2:53 PM,79.0,63.0,58,30.01,10.0,NE,15.0,-,N/A,,Scattered Clouds,50,2012-11-20 00:53:00
3:53 PM,78.1,64.0,62,30.01,10.0,NE,15.0,-,N/A,,Partly Cloudy,50,2012-11-20 01:53:00
4:53 PM,75.9,64.0,67,30.03,10.0,ENE,12.7,-,N/A,,Partly Cloudy,60,2012-11-20 02:53:00
5:53 PM,73.9,64.0,71,30.04,10.0,NNE,11.5,-,N/A,,Partly Cloudy,30,2012-11-20 03:53:00
6:53 PM,73.9,64.9,73,30.06,10.0,ENE,12.7,-,N/A,,Partly Cloudy,60,2012-11-20 04:53:00
7:53 PM,73.9,66.0,76,30.08,10.0,ENE,12.7,-,N/A,,Partly Cloudy,60,2012-11-20 05:53:00
8:53 PM,73.0,66.0,79,30.09,10.0,ENE,11.5,-,N/A,,Partly Cloudy,60,2012-11-20 06:53:00
9:53 PM,73.0,66.0,79,30.10,10.0,ENE,11.5,-,N/A,,Partly Cloudy,60,2012-11-20 07:53:00
10:53 PM,73.0,64.9,76,30.07,10.0,ENE,12.7,-,N/A,,Scattered Clouds,60,2012-11-20 08:53:00
11:53 PM,73.0,64.0,73,30.07,10.0,ENE,9.2,-,N/A,,Scattered Clouds,60,2012-11-20 09:53:00